Regional Weather Roundup
Issued by NWS

Home | Current Version | Previous Version | Text Only | Print | Product List | Glossary On
Versions: 1 2 3 4 5 6 7 8 9 10 11 12 13 14 15 16 17 18 19 20 21 22 23 24 25 26 27 28 29 30 31 32 33 34 35 36 37 38 39 40 41 42 43 44 45 46 47 48 49 50
000
ASHW40 PHFO 231343
RWRHI

WEATHER ROUNDUP FOR HAWAII
NATIONAL WEATHER SERVICE HONOLULU HI
300 AM HST WED JUL 23 2014

THIS IS AN AUTOMATED REPORT THAT HAS NOT BEEN QUALITY CONTROLLED.

NOTE..."FAIR" INDICATES FEW OR NO CLOUDS BELOW 12,000 FEET WITH NO
SIGNIFICANT WEATHER AND/OR OBSTRUCTIONS TO VISIBILITY.

* - THESE SITES REPORT LIMITED FIELDS

HIZ001>004-231400-
KAUAI-NIIHAU-

CITY           SKY/WX    TMP DP  RH WIND       PRES   REMARKS
LIHUE APT      CLOUDY    79  73  83 NE14      30.04F
PORT ALLEN*      N/A     77 N/A N/A E14G20      N/A
POIPU*           N/A     77 N/A N/A NE9G16      N/A
PRINCEVILLE*   NOT AVBL
KOKOLE POINT*  NOT AVBL
MOLOAA DAIRY*  NOT AVBL
WAIMEA HTS*      N/A     75  66  73 E1G9        N/A
PUU OPAE*        N/A     70  66  88 CALM        N/A
PUU LUA*       NOT AVBL
MAKAHA RIDGE*  NOT AVBL
$$

HIZ005>011-231400-
OAHU-

CITY           SKY/WX    TMP DP  RH WIND       PRES   REMARKS
HONOLULU       LGT RAIN  79  69  71 N3        30.02F
KALAELOA       CLOUDY    76  71  85 VRB3      30.03F
KANEOHE MCB    CLOUDY    72  67  85 E13G20    30.03F
WHEELER FIELD  CLOUDY    72  70  94 W1        30.03F
BELLOWS*         N/A    N/A N/A N/A NE21        N/A
KAHUKU*          N/A    N/A N/A N/A E7G14       N/A
WHEELER*       NOT AVBL
WAIANAE HARBOR NOT AVBL
DILLINGHAM*      N/A     75  70  83 NE1         N/A
KAHUKU TRN*      N/A     72  70  94 E10G23      N/A
KAWAILOA*      NOT AVBL
KII*             N/A     75  72  88 E14G22      N/A
MAKUA RANGE*     N/A     79  68  69 E9G15       N/A
OAHU FOREST NW   N/A     66  66 100 N18G35      N/A
SCHOFIELD BRK*   N/A     72  68  88 MISG        N/A
SCHOFIELD S*   NOT AVBL
WAIANAE VLY*     N/A     73  66  78 NW8G24      N/A
KUAOKALA*        N/A     72  68  88 CALM        N/A
HONOULIUULI*   NOT AVBL
MOKUOLOE IS*     N/A    N/A N/A N/A MISG        N/A
PALEHUA*         N/A     81  73  78 CALM        N/A
WAIAWA PHB*    NOT AVBL
$$

HIZ012>013-231400-
MOLOKAI-

CITY           SKY/WX    TMP DP  RH WIND       PRES   REMARKS
MOLOKAI AIRPT  CLEAR     75  71  87 NE15G22   30.02F
KALAUPAPA      NOT AVBL
MAKAPULAPAI*     N/A     75  68  78 E18G26      N/A
MOLOKAI 1*       N/A     66  64  94 E9G21       N/A
PUU ALII*        N/A     60  60  99 E2G9        N/A
$$

HIZ016-231400-
KAHOOLAWE-

CITY           SKY/WX    TMP DP  RH WIND       PRES   REMARKS
KAHOOLAWE*       N/A     70 N/A N/A E5          N/A
HAKIOAWA*        N/A     72  70  93 MISG      30.12F
HONOKANAIA*      N/A     78  71  79 NE10G20   30.01F
KANELOA*         N/A     73  70  88 E17G29    30.09F
KEALIALALO*      N/A    N/A N/A N/A E6G23       N/A
LUA MAKIKA*    NOT AVBL
$$

HIZ014>015-231400-
LANAI-

CITY           SKY/WX    TMP DP  RH WIND       PRES   REMARKS
LANAI CITY     CLOUDY    72  68  87 NE15      30.05F
LANAI 1*         N/A     70  70 100 NE23G35     N/A
$$

HIZ017>028-231400-
MAUI-

CITY           SKY/WX    TMP DP  RH WIND       PRES   REMARKS
KAHULUI        MOCLDY    76  69  79 NE15      30.01F
KAPALUA-W MAUI NOT AVBL
HANA AIRPORT   CLOUDY    77  68  73 E6        30.05S
HANA*            N/A     77 N/A N/A E9G15       N/A
HALEAKALA SUMM   N/A     48  32  53 E14         N/A
MAALAEA BAY*   NOT AVBL
HALEAKALA*     NOT AVBL
KAUPO GAP*       N/A     61  61 100 CALM        N/A
KULA 1*          N/A     56  47  73 E3          N/A
$$

HIZ023>026-231400-
BIG ISLAND OF HAWAII COAST AND LOWER SLOPES-

CITY           SKY/WX    TMP DP  RH WIND       PRES   REMARKS
KAILUA KONA    PTCLDY    75  73  94 E6        29.94S
HILO           CLOUDY    75  72  90 CALM      30.01S
HONOKAA*       NOT AVBL
KAWAIHAE MWT*    N/A     79 N/A N/A N5          N/A
KAWAIHAE*        N/A     79 N/A N/A N2          N/A
SOUTH POINT*     N/A     72 N/A N/A NE14G23     N/A
UPOLU AIRPORT*   N/A    N/A N/A N/A NE22G30     N/A
KAMUELA*       PTSUNNY   66  66 100 NE18      30.08F FOG
HAKALAU*         N/A     48  46  93 SW2         N/A
KALOKO-HONOKO*   N/A     73  72  94 NE5       29.93F
PALI 2*          N/A     64  64 100 SE6G21      N/A
KEALAKOMO*       N/A     75  75 100 E13G18      N/A
KAUPULEHU*       N/A     72  64  78 SE5         N/A
KAPAPALA*        N/A     69  67  92 CALM        N/A
LOWER KAHUKU*  NOT AVBL
PUHE CS*       NOT AVBL
PUHO CS*         N/A     74  69  83 E2          N/A
PTA KEAMUKU*     N/A     63  59  88 E7          N/A
WAIKOLOA*        N/A     73  66  78 E14G23      N/A
$$

HIZ027>028-231400-
BIG ISLAND OF HAWAII INTERIOR AND SUMMMITS-

CITY           SKY/WX    TMP DP  RH WIND       PRES   REMARKS
BRADSHAW FIELD CLOUDY    55  49  79 SE6       30.35F
MK VISITOR CEN NOT AVBL
MAUNA KEA*       N/A     36  16  44 E15         N/A  WCI  26
MAUNA LOA*       N/A     45  34  65 MISG        N/A
MAUNA LOA 1*     N/A     46  36  66 MISG        N/A
PTA KIPUKA*      N/A     55  54  94 E2G9        N/A
PTA RANGE 17*    N/A     57  54  88 E7          N/A
PTA WEST*        N/A     61  59  94 SE1G12      N/A
NENE CABIN*    NOT AVBL
AHUMOA*          N/A     56  49  79 E6          N/A
PTA PORTABLE*  NOT AVBL
PUU MALI*      NOT AVBL
$$

HIC003-231400-
NORTHWEST ISLANDS-

CITY           SKY/WX    TMP DP  RH WIND       PRES   REMARKS
MIDWAY ISLAND  CLEAR     79  70  73 E8        30.09F
MIDWAY NOS*    NOT AVBL
FRENCH FRIGATE NOT AVBL
$$

PHZ110>124-180-231400-
BUOY REPORTS

STATION/POSITION TIME  TEMP    WIND        PRES    WAVE   SWELL
                       AIR SEA DIR/SP/G            HT/PER HT/DIR
                 (UTC) (F)     (DEG/KT/KT) (MB)    (FT/S) (FT/D)
BUOY 51001       NOT AVBL
BUOY 51101       1300   79 80  100/ 16/ 17 1017.3F   6/ 9   5/120
BUOY 51100       1300   77      80/ 16       N/A
BUOY 51003       1300   80 81   50/  6/  8 1014.9F   6/ 8   5
BUOY 51004       1223   78 79   70/ 17/ 19 1013.8F   7/ 8   5/100
BARBERS PT BUOY  NOT AVBL
WAIMEA BAY BUOY  1300      80                N/A     4/ 8
KAILUA BAY BUOY  1300      80                N/A     6/ 8
LANAI BUOY       1300      80                N/A     3/ 8   2/190
BARBERS PT 2     1300      81                N/A     5/ 8   2/200
PAUWELA MAUI     1300      79                N/A     5/ 8
HILO             NOT AVBL
KANEOHE BAY BUOY 1300      79                N/A     5/ 8
HANALEI KAUAI    NOT AVBL
KAHULUI HARBOR   1300   77 80   40/ 10/ 14 1016.0F
HONOLULU HARBOR  1300   77      40/  3/  4 1016.7F
KILO NALU        NOT AVBL
HILO HARBOR      1300   75     180/  2/  3 1015.7F
MOKUOLOE         1300   79 82   80/ 12/ 15 1016.9F
NAWILIWILI       1300      81                N/A
WHOTS BUOY       NOT AVBL
BUOY 51028       NOT AVBL
$$

......................KEY........................................
  SKY/WX - SKY CONDITIONS/PRESENT WEATHER
  TMP    - TEMPERATURE IN FAHRENHEIT
  DWPT   - DEWPOINT IN FAHRENHEIT
  RH     - RELATIVE HUMIDITY IN PERCENT
  WIND   - DIRECTION AND SPEED /MPH FOR ISLANDS...KTS FOR BUOYS/
  PRES   - MEAN SEA LEVEL PRESSURE IN INCHES OF HG
  VSB    - VISIBILITY IN MILES
  HX     - HEAT INDEX
  WCI    - WIND CHILL INDEX
  VRB    - VARIABLE WIND DIRECTION
  N/A    - NOT AVAILABLE


USA.gov is the U.S. government's official web portal to all federal, state and local government web resources and services.